KLM44M EDSB-EHAM

Flight info

Callsign KLM44M
Flight time 0h 56m
Altitude 24000
Route GAGSI1Y GAGSI Y712 UBASI Y127 TUDGA/N0450F340 Z114 ADENU L608 LIRSU DCT ARCKY DCT BUB Y28 HELEN
Aircraft A321/M-SDE3FGHIRWY/LB1

Departure

Time 2026-04-28 12:02
Airport Karlsruhe Baden-Baden Airport (EDSB)

Arrival

Time 2026-04-28 12:58
Airport Amsterdam Airport Schiphol (EHAM)
Time Latitude Longitude Altitude Speed Heading
2026-04-28 11:39 48.78122 8.08831 413 ft 0 kts 96°
2026-04-28 11:55 48.78122 8.08835 416 ft 2 kts 96°
2026-04-28 11:56 48.78104 8.08846 411 ft 5 kts 198°
2026-04-28 11:56 48.78098 8.08770 416 ft 10 kts 266°
2026-04-28 11:56 48.78035 8.08701 410 ft 13 kts 209°
2026-04-28 11:56 48.77962 8.08634 410 ft 13 kts 213°
2026-04-28 11:57 48.77880 8.08550 411 ft 15 kts 212°
2026-04-28 11:57 48.77785 8.08462 413 ft 16 kts 211°
2026-04-28 11:57 48.77762 8.08337 410 ft 13 kts 295°
2026-04-28 11:57 48.77788 8.08212 416 ft 12 kts 248°
2026-04-28 11:58 48.77710 8.08131 410 ft 18 kts 212°
2026-04-28 11:58 48.77599 8.08024 408 ft 19 kts 213°
2026-04-28 11:58 48.77491 8.07925 411 ft 17 kts 211°
2026-04-28 11:58 48.77377 8.07819 410 ft 21 kts 212°
2026-04-28 11:59 48.77252 8.07701 414 ft 21 kts 211°
2026-04-28 11:59 48.77134 8.07592 414 ft 19 kts 212°
2026-04-28 11:59 48.77028 8.07492 410 ft 17 kts 212°
2026-04-28 11:59 48.76932 8.07402 414 ft 15 kts 211°
2026-04-28 12:00 48.76833 8.07309 410 ft 18 kts 212°
2026-04-28 12:00 48.76738 8.07208 407 ft 15 kts 234°
2026-04-28 12:00 48.76762 8.07069 409 ft 14 kts 302°
2026-04-28 12:00 48.76839 8.07025 408 ft 13 kts 25°
2026-04-28 12:01 48.76857 8.07040 415 ft 0 kts 31°
2026-04-28 12:01 48.76924 8.07102 408 ft 38 kts 31°
2026-04-28 12:01 48.77347 8.07498 415 ft 101 kts 31°
2026-04-28 12:01 48.78088 8.08193 417 ft 147 kts 31°
2026-04-28 12:02 48.78972 8.09013 933 ft 147 kts 30°
2026-04-28 12:02 48.79837 8.09844 1585 ft 147 kts 32°
2026-04-28 12:02 48.80711 8.10678 2170 ft 150 kts 36°
2026-04-28 12:02 48.81639 8.11564 2467 ft 167 kts 34°
2026-04-28 12:03 48.82677 8.12550 2636 ft 186 kts 36°
2026-04-28 12:03 48.83819 8.13627 2767 ft 201 kts 33°
2026-04-28 12:03 48.85073 8.14802 2947 ft 224 kts 35°
2026-04-28 12:03 48.86437 8.16079 3582 ft 233 kts 34°
2026-04-28 12:04 48.87825 8.17366 4312 ft 235 kts 33°
2026-04-28 12:04 48.89051 8.18983 4999 ft 235 kts 62°
2026-04-28 12:04 48.89600 8.21379 5459 ft 250 kts 78°
2026-04-28 12:04 48.89989 8.24015 6024 ft 260 kts 78°
2026-04-28 12:05 48.90382 8.26727 6747 ft 265 kts 78°
2026-04-28 12:05 48.90775 8.29482 7446 ft 270 kts 79°
2026-04-28 12:05 48.91173 8.32293 8114 ft 275 kts 79°
2026-04-28 12:05 48.91577 8.35156 8816 ft 279 kts 79°
2026-04-28 12:06 48.91989 8.38066 9522 ft 284 kts 78°
2026-04-28 12:06 48.92406 8.41024 10180 ft 289 kts 78°
2026-04-28 12:06 48.92842 8.44112 10406 ft 310 kts 78°
2026-04-28 12:06 48.93309 8.47433 10550 ft 332 kts 79°
2026-04-28 12:07 48.93809 8.50983 10694 ft 353 kts 78°
2026-04-28 12:07 48.94331 8.54689 11008 ft 363 kts 78°
2026-04-28 12:07 48.94859 8.58470 11603 ft 368 kts 78°
2026-04-28 12:07 48.95391 8.62299 12211 ft 372 kts 78°
2026-04-28 12:08 48.95947 8.66166 12789 ft 378 kts 76°
2026-04-28 12:08 48.96942 8.69884 13375 ft 382 kts 60°
2026-04-28 12:08 48.98547 8.73124 13949 ft 387 kts 44°
2026-04-28 12:08 49.00677 8.75639 14447 ft 390 kts 28°
2026-04-28 12:09 49.03182 8.77208 14998 ft 391 kts 13°
2026-04-28 12:09 49.05876 8.77807 15502 ft 393 kts
2026-04-28 12:09 49.08613 8.78167 16055 ft 396 kts
2026-04-28 12:09 49.11368 8.78528 16582 ft 399 kts
2026-04-28 12:10 49.14150 8.78901 17063 ft 403 kts
2026-04-28 12:10 49.16952 8.79278 17615 ft 405 kts
2026-04-28 12:10 49.19770 8.79665 18129 ft 409 kts
2026-04-28 12:10 49.22618 8.80067 18619 ft 411 kts
2026-04-28 12:11 49.25437 8.80471 19083 ft 413 kts
2026-04-28 12:11 49.28309 8.80879 19546 ft 416 kts
2026-04-28 12:11 49.31198 8.81280 20003 ft 418 kts
2026-04-28 12:11 49.34096 8.81674 20463 ft 420 kts
2026-04-28 12:12 49.37018 8.82067 20904 ft 422 kts
2026-04-28 12:12 49.39952 8.82464 21343 ft 425 kts
2026-04-28 12:12 49.42905 8.82865 21797 ft 427 kts
2026-04-28 12:12 49.45877 8.83271 22250 ft 429 kts
2026-04-28 12:13 49.48860 8.83685 22697 ft 432 kts
2026-04-28 12:13 49.51860 8.83914 23107 ft 432 kts 355°
2026-04-28 12:13 49.54825 8.83268 23515 ft 431 kts 343°
2026-04-28 12:13 49.57639 8.81732 23875 ft 429 kts 332°
2026-04-28 12:14 49.60201 8.79384 24233 ft 428 kts 321°
2026-04-28 12:14 49.62405 8.76323 24588 ft 426 kts 309°
2026-04-28 12:14 49.64188 8.72681 24937 ft 426 kts 302°
2026-04-28 12:14 49.65841 8.68870 25262 ft 429 kts 302°
2026-04-28 12:15 49.67505 8.65039 25597 ft 431 kts 302°
2026-04-28 12:15 49.69178 8.61191 25943 ft 432 kts 302°
2026-04-28 12:15 49.70857 8.57321 26279 ft 434 kts 302°
2026-04-28 12:15 49.72540 8.53443 26601 ft 436 kts 302°
2026-04-28 12:16 49.74131 8.49444 26922 ft 436 kts 296°
2026-04-28 12:16 49.75313 8.45133 27252 ft 436 kts 287°
2026-04-28 12:16 49.76094 8.40600 27592 ft 437 kts 283°
2026-04-28 12:16 49.76820 8.36020 27909 ft 439 kts 283°
2026-04-28 12:17 49.77557 8.31424 28227 ft 440 kts 283°
2026-04-28 12:17 49.78299 8.26819 28568 ft 441 kts 283°
2026-04-28 12:17 49.79038 8.22231 29019 ft 439 kts 283°
2026-04-28 12:17 49.79773 8.17659 29462 ft 437 kts 283°
2026-04-28 12:18 49.80503 8.13098 29890 ft 436 kts 283°
2026-04-28 12:18 49.81225 8.08550 30281 ft 435 kts 283°
2026-04-28 12:18 49.81943 8.04010 30645 ft 433 kts 282°
2026-04-28 12:18 49.82682 7.99495 30998 ft 432 kts 284°
2026-04-28 12:19 49.83483 7.95031 31362 ft 431 kts 284°
2026-04-28 12:19 49.84328 7.90589 31722 ft 430 kts 285°
2026-04-28 12:19 49.85179 7.86219 32082 ft 428 kts 285°
2026-04-28 12:19 49.86037 7.81803 32448 ft 427 kts 285°
2026-04-28 12:20 49.86880 7.77390 32814 ft 425 kts 284°
2026-04-28 12:20 49.87703 7.72992 33182 ft 424 kts 284°
2026-04-28 12:20 49.88515 7.68603 33511 ft 423 kts 283°
2026-04-28 12:20 49.89321 7.64216 33840 ft 422 kts 283°
2026-04-28 12:21 49.90123 7.59835 34102 ft 422 kts 283°
2026-04-28 12:21 49.90925 7.55468 34145 ft 419 kts 283°
2026-04-28 12:21 49.92513 7.46808 34162 ft 417 kts 283°
2026-04-28 12:22 49.94083 7.38149 34166 ft 416 kts 283°
2026-04-28 12:22 49.95647 7.29496 34165 ft 416 kts 283°
2026-04-28 12:23 49.97214 7.20813 34181 ft 418 kts 283°
2026-04-28 12:23 49.98781 7.12100 34157 ft 419 kts 283°
2026-04-28 12:24 50.00342 7.03352 34141 ft 420 kts 283°
2026-04-28 12:24 50.01892 6.94584 34107 ft 421 kts 283°
2026-04-28 12:25 50.04189 6.86248 34105 ft 426 kts 296°
2026-04-28 12:25 50.07080 6.78181 34102 ft 428 kts 296°
2026-04-28 12:26 50.09961 6.70063 34097 ft 429 kts 295°
2026-04-28 12:26 50.12840 6.61907 34096 ft 430 kts 295°
2026-04-28 12:27 50.15721 6.53726 34096 ft 430 kts 295°
2026-04-28 12:27 50.18601 6.45533 34101 ft 430 kts 295°
2026-04-28 12:28 50.21479 6.37340 34107 ft 431 kts 295°
2026-04-28 12:28 50.24372 6.29105 34103 ft 433 kts 295°
2026-04-28 12:29 50.28694 6.16743 34120 ft 435 kts 296°
2026-04-28 12:30 50.31647 6.08464 34124 ft 436 kts 298°
2026-04-28 12:30 50.34830 6.00357 34129 ft 437 kts 299°
2026-04-28 12:31 50.38061 5.92259 34127 ft 439 kts 299°
2026-04-28 12:31 50.41249 5.84086 34124 ft 440 kts 298°
2026-04-28 12:32 50.44416 5.75849 34126 ft 441 kts 298°
2026-04-28 12:32 50.47576 5.67591 34136 ft 441 kts 298°
2026-04-28 12:33 50.50738 5.59320 34141 ft 442 kts 298°
2026-04-28 12:33 50.53905 5.51021 34135 ft 443 kts 298°
2026-04-28 12:34 50.57081 5.42688 34145 ft 445 kts 298°
2026-04-28 12:34 50.60253 5.34313 34146 ft 446 kts 297°
2026-04-28 12:35 50.63405 5.25957 34148 ft 446 kts 298°
2026-04-28 12:35 50.66575 5.17539 34150 ft 447 kts 298°
2026-04-28 12:36 50.69232 5.10461 34157 ft 448 kts 298°
2026-04-28 12:36 50.72407 5.01978 34145 ft 450 kts 297°
2026-04-28 12:37 50.75573 4.93492 34025 ft 454 kts 297°
2026-04-28 12:37 50.77195 4.89134 33615 ft 454 kts 297°
2026-04-28 12:37 50.78776 4.84882 33240 ft 454 kts 299°
2026-04-28 12:37 50.80376 4.80572 32876 ft 455 kts 298°
2026-04-28 12:38 50.81975 4.76251 32498 ft 454 kts 299°
2026-04-28 12:38 50.83570 4.71939 32133 ft 455 kts 299°
2026-04-28 12:38 50.85169 4.67608 31811 ft 457 kts 298°
2026-04-28 12:38 50.86778 4.63237 31444 ft 460 kts 298°
2026-04-28 12:39 50.88390 4.58844 31095 ft 462 kts 299°
2026-04-28 12:39 50.90004 4.54449 30763 ft 460 kts 299°
2026-04-28 12:39 50.91626 4.50084 30407 ft 460 kts 300°
2026-04-28 12:39 50.93289 4.45742 30029 ft 461 kts 301°
2026-04-28 12:40 50.94976 4.41423 29642 ft 462 kts 301°
2026-04-28 12:40 50.96680 4.37086 29227 ft 464 kts 300°
2026-04-28 12:40 50.98367 4.32777 28839 ft 466 kts 301°
2026-04-28 12:40 51.00069 4.28395 28475 ft 466 kts 301°
2026-04-28 12:41 51.01760 4.23997 28073 ft 468 kts 300°
2026-04-28 12:41 51.03457 4.19556 27696 ft 472 kts 300°
2026-04-28 12:41 51.05155 4.15086 27322 ft 471 kts 300°
2026-04-28 12:41 51.06840 4.10653 26954 ft 466 kts 300°
2026-04-28 12:42 51.08597 4.06330 26591 ft 464 kts 306°
2026-04-28 12:42 51.10721 4.02486 26235 ft 463 kts 316°
2026-04-28 12:42 51.13197 3.99207 25881 ft 465 kts 323°
2026-04-28 12:42 51.15790 3.96162 25531 ft 462 kts 323°
2026-04-28 12:43 51.18360 3.93130 25188 ft 457 kts 323°
2026-04-28 12:43 51.21006 3.90323 24844 ft 459 kts 332°
2026-04-28 12:43 51.23920 3.88283 24500 ft 457 kts 342°
2026-04-28 12:43 51.27002 3.87112 24173 ft 454 kts 353°
2026-04-28 12:44 51.30130 3.86810 23897 ft 448 kts
2026-04-28 12:44 51.33246 3.86752 23585 ft 448 kts
2026-04-28 12:44 51.36355 3.86684 23250 ft 445 kts 360°
2026-04-28 12:44 51.39437 3.86651 22917 ft 442 kts
2026-04-28 12:45 51.42433 3.87479 22584 ft 435 kts 19°
2026-04-28 12:45 51.45272 3.88922 22154 ft 430 kts 21°
2026-04-28 12:45 51.48145 3.90414 21491 ft 427 kts 20°
2026-04-28 12:45 51.50918 3.91870 20871 ft 423 kts 20°
2026-04-28 12:46 51.53690 3.93331 20366 ft 416 kts 21°
2026-04-28 12:46 51.56431 3.94779 20174 ft 414 kts 19°
2026-04-28 12:46 51.59164 3.96223 19746 ft 412 kts 21°
2026-04-28 12:46 51.61879 3.97656 19307 ft 409 kts 21°
2026-04-28 12:47 51.64579 3.99079 18874 ft 406 kts 21°
2026-04-28 12:47 51.67256 4.00491 18450 ft 404 kts 21°
2026-04-28 12:47 51.69917 4.01897 17957 ft 401 kts 20°
2026-04-28 12:47 51.72560 4.03292 17474 ft 398 kts 21°
2026-04-28 12:48 51.75179 4.04680 17010 ft 394 kts 20°
2026-04-28 12:48 51.77765 4.06052 16540 ft 389 kts 20°
2026-04-28 12:48 51.80331 4.07415 16073 ft 386 kts 22°
2026-04-28 12:48 51.82878 4.08771 15615 ft 384 kts 20°
2026-04-28 12:49 51.85408 4.10121 15177 ft 382 kts 21°
2026-04-28 12:49 51.87924 4.11466 14732 ft 379 kts 22°
2026-04-28 12:49 51.90405 4.12858 14297 ft 376 kts 25°
2026-04-28 12:49 51.92589 4.15056 13842 ft 367 kts 42°
2026-04-28 12:50 51.94538 4.17726 13363 ft 365 kts 43°
2026-04-28 12:50 51.96463 4.20386 12880 ft 362 kts 44°
2026-04-28 12:50 51.98367 4.23025 12332 ft 360 kts 44°
2026-04-28 12:50 52.00256 4.25646 11763 ft 353 kts 43°
2026-04-28 12:51 52.02090 4.28187 11207 ft 340 kts 43°
2026-04-28 12:51 52.03860 4.30636 10671 ft 329 kts 43°
2026-04-28 12:51 52.05573 4.33010 10117 ft 319 kts 43°
2026-04-28 12:51 52.07215 4.35288 9529 ft 302 kts 43°
2026-04-28 12:52 52.08771 4.37445 8946 ft 287 kts 44°
2026-04-28 12:52 52.10350 4.39306 8382 ft 277 kts 28°
2026-04-28 12:52 52.12117 4.40432 7836 ft 268 kts 24°
2026-04-28 12:52 52.13854 4.41385 7286 ft 259 kts 23°
2026-04-28 12:53 52.15537 4.42282 6740 ft 250 kts 25°
2026-04-28 12:53 52.17003 4.43621 6170 ft 236 kts 45°
2026-04-28 12:53 52.18020 4.45574 5615 ft 225 kts 61°
2026-04-28 12:53 52.18847 4.47708 5059 ft 220 kts 60°
2026-04-28 12:54 52.19662 4.49801 4486 ft 217 kts 60°
2026-04-28 12:54 52.20466 4.51870 3924 ft 213 kts 60°
2026-04-28 12:54 52.21244 4.53873 3394 ft 206 kts 60°
2026-04-28 12:54 52.21993 4.55806 2951 ft 197 kts 59°
2026-04-28 12:55 52.22721 4.57688 2430 ft 195 kts 58°
2026-04-28 12:55 52.23428 4.59514 2056 ft 185 kts 59°
2026-04-28 12:55 52.24092 4.61229 1793 ft 172 kts 58°
2026-04-28 12:55 52.24710 4.62828 1575 ft 162 kts 58°
2026-04-28 12:56 52.25296 4.64347 1328 ft 150 kts 57°
2026-04-28 12:56 52.25829 4.65727 1129 ft 139 kts 57°
2026-04-28 12:56 52.26335 4.67037 942 ft 134 kts 58°
2026-04-28 12:56 52.26829 4.68309 767 ft 131 kts 58°
2026-04-28 12:57 52.27318 4.69576 644 ft 134 kts 58°
2026-04-28 12:57 52.27806 4.70845 471 ft 130 kts 56°
2026-04-28 12:57 52.28300 4.72102 310 ft 133 kts 58°
2026-04-28 12:57 52.28774 4.73368 116 ft 130 kts 54°
2026-04-28 12:58 52.29247 4.74598 25 ft 119 kts 57°
2026-04-28 12:58 52.29596 4.75506 16 ft 61 kts 58°
2026-04-28 12:58 52.29759 4.75782 15 ft 20 kts 28°
2026-04-28 12:58 52.29873 4.75880 13 ft 18 kts 28°
2026-04-28 12:59 52.29980 4.75979 13 ft 17 kts 38°
2026-04-28 12:59 52.30049 4.76131 11 ft 17 kts 58°
2026-04-28 12:59 52.30114 4.76272 14 ft 14 kts 27°
2026-04-28 12:59 52.30203 4.76288 15 ft 13 kts 36°
2026-04-28 13:00 52.30257 4.76416 15 ft 14 kts 58°
2026-04-28 13:00 52.30320 4.76523 12 ft 14 kts 14°
2026-04-28 13:00 52.30413 4.76459 7 ft 14 kts 328°
2026-04-28 13:00 52.30466 4.76405 4 ft 8 kts 328°
2026-04-28 13:01 52.30517 4.76353 2 ft 9 kts 328°
2026-04-28 13:01 52.30524 4.76295 1 ft 5 kts 245°
2026-04-28 13:01 52.30511 4.76258 1 ft 0 kts 239°